Tracking 17141 objects as of 6-July-2015
HD Live streaming from Space Station

COSMOS 2251 DEB

Track COSMOS 2251 DEB now!
10-day predictions
COSMOS 2251 DEB is classified as:


NORAD ID: 35442
Int'l Code: 1993-036AKL
Perigee: 750.0 km
Apogee: 769.4 km
Inclination: 74.0 °
Period: 99.9 minutes
Semi major axis: 7130 km
RCS: 0.0032 m2 (small)
Launch date: June 16, 1993
Source: Commonwealth of Independent States (former USSR) (CIS)

Note: This is SATELLITE DEBRIS
Your satellite tracking list
Your tracking list is empty





NASA's NSSDC Master Catalog

Two Line Element Set (TLE):
1 35442U 93036AKL 15185.34521155  .00001880  00000-0  58297-3 0  9996
2 35442 074.0446 059.6697 0013629 333.2758 147.9594 14.41791941322231

Source of the keplerian elements: AFSPC

N2YO: 213